Location: Pilipovskiye Korichintsy
(49.1833°N, 27.4667°E)
Time: 23:59:00
(UTC+00:00)

Lacrosse 5 - Pass Details

Date: 29 October 2020
Orbit: 714 x 725 km, 57.0° (Epoch: 30 November)

Event Time Altitude Azimuth Distance (km) Brightness Sun altitude
Rises 16:31:54 0° 293° (WNW) 3,120 6.4 -16.6°
Reaches altitude 10° 16:34:28 10° 303° (WNW) 2,199 5.2 -17.0°
Maximum altitude 16:39:08 36° 10° (N) 1,132 2.8 -17.7°
Enters shadow 16:41:02 27° 52° (NE) 1,373 2.9 -18.1°
